EW5836 Weather Reports


Display with metric or nautical units.
time (UTC)temp
F
wind
direction
speed
MPH
gust
MPH
rain 1hr
in
rain 24hr
in
rain mn
in
humidity
%
barometer
mb
20260506062054 55 296 1.0 3.0 0.63 1.73 0.27 97 1008.6
20260506061549 55 276 0.0 4.0 0.55 1.65 0.25 97 1008.6
20260506061041 55 274 1.0 4.0 0.39 1.46 0.21 97 1008.7
20260506060543 55 253 0.0 2.0 0.24 1.30 0.18 97 1008.7
20260506051045 54 145 0.0 5.0 0.47 1.77 0.13 97 1009.0
20260506050550 55 143 0.0 6.0 0.47 1.77 0.13 97 1008.9
20260506050108 55 354 4.0 5.0 0.43 1.73 0.13 97 1008.9
20260506045041 54 147 0.0 0.0 0.35 2.01 0.10 97 1009.5
20260506044533 54 147 0.0 0.0 0.31 1.93 0.09 97 1009.5
20260506044039 55 147 0.0 0.0 0.28 1.89 0.08 97 1009.5
20260506043545 55 147 0.0 0.0 0.24 1.85 0.07 97 1009.5
20260506043054 55 147 0.0 0.0 0.20 1.81 0.06 97 1009.5
20260506042531 55 147 0.0 0.0 0.16 1.77 0.06 97 1009.6
20260506042049 55 147 0.0 0.0 0.12 1.73 0.05 97 1009.5
20260506041551 55 147 0.0 0.0 0.12 1.73 0.05 97 1009.5
20260506041041 55 147 0.0 0.0 0.08 1.69 0.04 97 1009.6
20260506040546 55 147 0.0 0.0 0.08 1.69 0.04 97 1009.6
20260506040032 55 147 0.0 0.0 0.08 1.69 0.04 97 1009.6
20260506035558 55 147 0.0 0.0 0.04 1.73 0.03 97 1009.5
20260506035058 55 147 0.0 0.0 0.04 1.73 0.03 97 1009.6
20260506034532 55 147 0.0 0.0 0.00 1.69 0.02 97 1009.7
20260506034038 55 147 0.0 0.0 0.00 1.69 0.02 97 1009.7
20260506033602 55 147 0.0 0.0 0.00 1.69 0.02 97 1009.7
20260506033101 55 147 0.0 0.0 0.00 1.69 0.02 97 1009.9
20260506032542 55 147 0.0 0.0 0.00 1.69 0.02 97 1010.0
20260506032057 55 147 0.0 0.0 0.00 1.69 0.02 97 1010.0
20260506031534 55 147 0.0 0.0 0.00 1.69 0.02 97 1010.1
20260506031045 55 147 0.0 0.0 0.00 1.69 0.02 96 1010.1
20260506030550 55 147 0.0 0.0 0.00 1.69 0.02 96 1010.3
20260506030041 55 147 0.0 0.0 0.00 1.69 0.02 96 1010.2
20260506025603 55 147 0.0 0.0 0.00 1.69 0.02 96 1010.3
20260506025042 55 147 0.0 0.0 0.00 1.69 0.02 96 1010.3
20260506024547 55 147 0.0 0.0 0.00 1.69 0.02 96 1010.4
20260506024058 55 147 0.0 0.0 0.00 1.69 0.02 96 1010.4
20260506023558 55 147 0.0 0.0 0.00 1.69 0.02 96 1010.5
20260506023117 55 147 0.0 0.0 0.00 1.69 0.02 96 1010.5
20260506022532 55 147 0.0 0.0 0.00 1.69 0.02 96 1010.6
20260506022039 55 147 0.0 0.0 0.00 1.69 0.02 96 1010.6
20260506021542 55 147 0.0 0.0 0.04 1.69 0.02 96 1010.6
20260506021034 55 147 0.0 0.0 0.04 1.69 0.02 96 1010.6
20260506020538 55 147 0.0 0.0 0.08 1.69 0.02 96 1010.5
20260506020039 55 147 0.0 0.0 0.08 1.69 0.02 96 1010.5
20260506015602 55 147 0.0 0.0 0.12 1.73 0.02 96 1010.6
20260506015051 55 147 0.0 0.0 0.12 1.73 0.02 96 1010.6
20260506014545 55 147 0.0 0.0 0.12 1.73 0.02 96 1010.6
20260506014057 55 147 0.0 0.0 0.12 1.73 0.02 96 1010.7
20260506013532 55 147 0.0 0.0 0.12 1.73 0.02 96 1010.7
20260506013041 55 147 0.0 0.0 0.12 1.73 0.02 96 1010.8
20260506012545 55 147 0.0 0.0 0.12 1.73 0.02 96 1010.9
20260506012058 55 147 0.0 0.0 0.08 1.69 0.02 96 1011.1
20260506011534 55 147 0.0 0.0 0.08 1.69 0.02 96 1011.2
20260506011040 55 147 0.0 0.0 0.08 1.69 0.02 96 1011.3
20260506010604 55 147 0.0 0.0 0.04 1.65 0.01 96 1011.4
20260506010036 55 147 0.0 0.0 0.04 1.65 0.01 96 1011.6
20260506005540 55 147 0.0 0.0 0.00 1.61 0.00 96 1011.7
20260506005031 55 147 0.0 0.0 0.00 1.61 0.00 96 1011.7
20260506004536 55 147 0.0 0.0 0.00 1.61 0.00 96 1011.7
20260506004043 55 147 0.0 0.0 0.00 1.61 0.00 96 1011.7
20260506003548 55 147 0.0 0.0 0.00 1.61 0.00 96 1011.8
20260506003040 55 147 0.0 0.0 0.00 1.61 0.00 96 1011.8
20260506002542 55 147 0.0 0.0 0.00 1.61 0.00 96 1011.8
20260506002043 55 147 0.0 0.0 0.00 1.61 0.00 96 1011.8
20260506001547 55 148 0.0 0.0 0.00 1.61 0.00 96 1011.9
20260506001036 55 147 0.0 0.0 0.00 1.61 0.00 96 1012.0
20260506000542 55 147 0.0 0.0 0.00 1.61 0.00 96 1012.1
20260506000036 55 147 0.0 0.0 0.00 1.61 0.00 96 1012.2
20260505235536 55 147 0.0 0.0 0.00 1.61 0.00 96 1012.2
20260505235043 55 147 0.0 0.0 0.00 1.61 0.00 96 1012.1
20260505234603 55 147 0.0 0.0 0.00 1.61 0.00 96 1012.0
20260505234032 55 147 0.0 0.0 0.00 1.61 0.00 96 1012.1
20260505233536 55 147 0.0 0.0 0.00 1.61 0.00 96 1012.3
20260505233047 55 147 0.0 0.0 0.00 1.61 0.00 96 1012.4
20260505232532 55 147 0.0 0.0 0.00 1.61 0.00 96 1012.5
20260505232041 55 147 0.0 0.0 0.00 1.61 0.00 96 1012.5
20260505231545 55 147 0.0 0.0 0.00 1.61 0.00 96 1012.6
20260505231056 55 147 0.0 0.0 0.00 1.61 0.00 96 1012.8
20260505230532 55 147 0.0 0.0 0.00 1.61 0.00 96 1012.8
20260505230038 55 147 0.0 0.0 0.00 1.61 0.00 96 1012.6
20260505225543 55 147 0.0 0.0 0.00 1.61 0.00 96 1012.4
20260505225036 55 147 0.0 0.0 0.00 1.61 0.00 96 1012.4
20260505224538 55 147 0.0 0.0 0.00 1.61 0.00 96 1012.4
20260505224056 55 147 0.0 0.0 0.00 1.61 0.00 96 1012.5
20260505223532 55 147 0.0 0.0 0.00 1.61 0.00 96 1012.7
20260505223044 55 147 0.0 0.0 0.00 1.61 0.00 96 1012.8
20260505222545 55 147 0.0 0.0 0.00 1.61 0.00 96 1012.8
20260505222037 56 147 0.0 0.0 0.00 1.61 0.00 96 1012.8
20260505221541 56 147 0.0 0.0 0.00 1.61 0.00 96 1012.9
20260505221034 55 147 0.0 0.0 0.00 1.61 0.00 96 1012.8
20260505220534 55 147 0.0 0.0 0.00 1.61 0.00 96 1012.7
20260505220043 55 147 0.0 0.0 0.00 1.61 0.00 96 1012.9
20260505215536 55 147 0.0 0.0 0.00 1.61 0.32 96 1013.0
20260505215048 55 147 0.0 0.0 0.00 1.61 0.32 96 1012.9
20260505214610 55 147 0.0 0.0 0.00 1.61 0.32 96 1012.9
20260505214040 55 147 0.0 0.0 0.00 1.61 0.32 96 1013.0
20260505213546 55 147 0.0 0.0 0.00 1.61 0.32 96 1013.0
20260505213107 55 147 0.0 0.0 0.00 1.61 0.32 96 1013.1
20260505212605 55 147 0.0 0.0 0.00 1.61 0.32 96 1013.2
20260505212037 55 147 0.0 0.0 0.00 1.61 0.32 96 1013.3
20260505211601 55 147 0.0 0.0 0.00 1.61 0.32 96 1013.3
20260505211034 55 147 0.0 0.0 0.00 1.61 0.32 96 1013.3
20260505210540 55 147 0.0 0.0 0.00 1.61 0.32 96 1013.3
20260505210119 55 147 0.0 0.0 0.00 1.61 0.32 96 1013.4
20260505205535 55 147 0.0 0.0 0.00 1.61 0.32 96 1013.5
20260505205051 55 147 0.0 0.0 0.00 1.61 0.32 96 1013.5
20260505204540 55 147 0.0 0.0 0.00 1.61 0.32 96 1013.4
20260505204031 55 147 0.0 0.0 0.00 1.61 0.32 96 1013.4
20260505203536 55 147 0.0 0.0 0.00 1.61 0.32 96 1013.4
20260505203117 55 147 0.0 0.0 0.00 1.61 0.32 96 1013.4
20260505202531 55 147 0.0 0.0 0.00 1.61 0.32 96 1013.4
20260505202043 55 147 0.0 0.0 0.00 1.61 0.32 96 1013.4
20260505201549 55 147 0.0 0.0 0.00 1.61 0.32 96 1013.4
20260505201055 55 147 0.0 0.0 0.00 1.61 0.32 96 1013.4
20260505200532 55 147 0.0 0.0 0.00 1.61 0.32 96 1013.4
20260505200042 55 147 0.0 0.0 0.00 1.61 0.32 96 1013.4
20260505195533 55 147 0.0 0.0 0.00 1.61 0.32 96 1013.4
20260505195045 55 147 0.0 0.0 0.00 1.61 0.32 96 1013.3
20260505194549 56 147 0.0 0.0 0.00 1.61 0.32 96 1013.3
20260505194043 56 147 0.0 0.0 0.00 1.61 0.32 96 1013.2
20260505193537 56 147 0.0 0.0 0.00 1.61 0.32 96 1013.2
20260505193049 56 147 0.0 0.0 0.00 1.61 0.32 96 1013.3
20260505192548 56 147 0.0 0.0 0.00 1.61 0.32 95 1013.2
20260505192109 56 147 0.0 0.0 0.00 1.61 0.32 95 1013.1
20260505191537 56 147 0.0 0.0 0.00 1.61 0.32 95 1013.0
20260505191120 56 147 0.0 0.0 0.00 1.61 0.32 95 1013.0
20260505190534 56 147 0.0 0.0 0.00 1.61 0.32 95 1013.1
20260505190045 56 147 0.0 0.0 0.00 1.61 0.32 95 1013.0
20260505185549 56 147 0.0 0.0 0.00 1.61 0.32 95 1013.1
20260505185045 56 147 0.0 0.0 0.00 1.61 0.32 95 1013.0
20260505184550 56 147 0.0 0.0 0.04 1.61 0.32 95 1013.0
20260505184101 56 147 0.0 0.0 0.04 1.61 0.32 95 1013.0
20260505183545 56 147 0.0 0.0 0.04 1.61 0.32 95 1013.0
20260505183033 56 147 0.0 0.0 0.04 1.61 0.32 95 1013.0
20260505182539 56 147 0.0 0.0 0.04 1.61 0.32 95 1013.0
20260505182039 56 147 0.0 0.0 0.04 1.61 0.32 95 1013.0
20260505181544 56 147 0.0 0.0 0.08 1.61 0.32 95 1013.0
20260505181055 56 147 0.0 0.0 0.12 1.61 0.32 95 1013.0
20260505180533 56 147 0.0 0.0 0.12 1.61 0.32 95 1012.9
20260505180045 56 147 0.0 0.0 0.12 1.61 0.32 95 1012.9
20260505175550 56 147 0.0 0.0 0.12 1.61 0.32 95 1012.9
20260505175040 56 147 0.0 0.0 0.12 1.61 0.32 95 1013.0
20260505174543 56 147 0.0 0.0 0.08 1.57 0.31 95 1013.0
20260505174039 56 147 0.0 0.0 0.08 1.57 0.31 94 1013.0
20260505173543 56 147 0.0 0.0 0.08 1.57 0.31 94 1013.0
20260505173032 56 147 0.0 0.0 0.08 1.57 0.31 94 1013.0
20260505172537 56 147 0.0 0.0 0.08 1.57 0.31 94 1013.0
20260505172059 56 147 0.0 0.0 0.08 1.57 0.31 94 1013.0
20260505171536 56 147 0.0 0.0 0.04 1.54 0.31 94 1013.0
20260505171045 56 147 0.0 0.0 0.00 1.50 0.30 94 1013.1
20260505170550 56 147 0.0 0.0 0.00 1.50 0.30 94 1013.2
20260505170048 56 147 0.0 0.0 0.00 1.50 0.30 93 1013.2
20260505165536 56 147 0.0 0.0 0.00 1.50 0.30 93 1013.3
20260505165057 56 147 0.0 0.0 0.00 1.50 0.30 93 1013.3
20260505164532 57 147 0.0 0.0 0.00 1.50 0.30 92 1013.3
20260505164040 57 147 0.0 0.0 0.00 1.50 0.30 92 1013.2
20260505163543 57 147 0.0 5.0 0.00 1.50 0.30 91 1013.2
20260505163035 57 147 0.0 6.0 0.00 1.50 0.30 90 1013.2
20260505162558 58 153 2.0 6.0 0.00 1.50 0.30 89 1013.3
20260505162044 58 160 0.0 0.0 0.00 1.50 0.30 88 1013.2
20260505161549 58 161 0.0 0.0 0.00 1.50 0.30 87 1013.2
20260505161057 58 161 0.0 0.0 0.00 1.50 0.30 86 1013.1
20260505160543 58 161 0.0 0.0 0.00 1.50 0.30 85 1013.0
20260505153044 59 161 0.0 0.0 0.00 1.50 0.30 83 1013.2
20260505152549 59 161 0.0 0.0 0.00 1.50 0.30 83 1013.2
20260505152040 59 161 0.0 0.0 0.00 1.50 0.30 83 1013.2
20260505151545 59 161 0.0 0.0 0.00 1.50 0.30 83 1013.2
20260505151031 59 161 0.0 0.0 0.00 1.50 0.30 84 1013.2
20260505150535 59 161 0.0 0.0 0.00 1.50 0.30 83 1013.2
20260505150105 59 161 0.0 0.0 0.00 1.50 0.30 83 1013.2
20260505140556 59 161 0.0 3.0 0.00 1.50 0.30 83 1013.5
20260505124557 57 170 0.0 0.0 0.00 1.50 0.30 90 1014.0
20260505124106 57 170 0.0 0.0 0.00 1.50 0.30 90 1014.0
20260505123549 57 170 0.0 0.0 0.00 1.50 0.30 91 1013.9
20260505123038 57 170 0.0 0.0 0.00 1.50 0.30 91 1014.0
20260505122542 57 170 0.0 0.0 0.00 1.50 0.30 91 1014.0
20260505122035 57 170 0.0 0.0 0.00 1.50 0.30 91 1014.0
20260505121539 57 170 0.0 0.0 0.00 1.50 0.30 91 1014.1
20260505121033 56 170 0.0 0.0 0.00 1.50 0.30 91 1014.1
20260505120537 57 170 0.0 0.0 0.00 1.50 0.30 91 1014.1
20260505120049 56 171 0.0 0.0 0.00 1.50 0.30 91 1014.1
20260505115555 56 304 0.0 0.0 0.00 1.50 0.30 91 1014.1
20260505115039 56 304 0.0 0.0 0.00 1.50 0.30 91 1014.1
20260505114543 56 304 0.0 0.0 0.00 1.50 0.30 92 1014.1
20260505114035 56 304 0.0 0.0 0.00 1.50 0.30 92 1014.0
20260505113539 56 304 0.0 0.0 0.00 1.50 0.30 91 1014.1
20260505113032 56 303 0.0 0.0 0.00 1.50 0.30 92 1014.1
20260505112536 56 304 0.0 0.0 0.00 1.50 0.30 91 1014.2
20260505112052 57 304 0.0 0.0 0.00 1.50 0.30 92 1014.1
20260505111535 56 303 0.0 0.0 0.00 1.50 0.30 92 1014.2
20260505111039 56 304 0.0 0.0 0.00 1.50 0.30 92 1014.2
20260505110545 56 250 0.0 0.0 0.00 1.50 0.30 92 1014.3
20260505102038 56 247 0.0 0.0 0.04 1.50 0.30 94 1014.4
20260505101543 56 257 0.0 0.0 0.04 1.50 0.30 94 1014.4
20260505101036 56 264 0.0 0.0 0.04 1.50 0.30 94 1014.4
20260505100542 55 277 0.0 0.0 0.04 1.50 0.30 94 1014.4
20260505100032 55 278 0.0 5.0 0.04 1.50 0.30 94 1014.4
20260505095536 55 241 0.0 8.0 0.04 1.50 0.30 94 1014.5
20260505095044 55 239 1.0 5.0 0.04 1.50 0.30 94 1014.4
20260505094606 55 241 0.0 0.0 0.00 1.46 0.29 94 1014.4
20260505094036 55 253 0.0 0.0 0.00 1.46 0.29 94 1014.4
20260505093541 55 254 0.0 0.0 0.00 1.46 0.29 94 1014.4
20260505093032 55 270 0.0 0.0 0.00 1.46 0.29 94 1014.5
20260505092537 55 234 0.0 0.0 0.00 1.46 0.29 94 1014.5
20260505092049 55 245 0.0 3.0 0.00 1.46 0.29 95 1014.5
20260505091543 55 253 0.0 4.0 0.00 1.46 0.29 95 1014.4
20260505091034 55 247 0.0 0.0 0.00 1.46 0.29 95 1014.4
20260505090600 55 246 0.0 4.0 0.00 1.46 0.29 95 1014.4
20260505090045 55 265 0.0 4.0 0.00 1.46 0.29 95 1014.4
20260505085549 55 236 0.0 0.0 0.00 1.46 0.29 95 1014.4
20260505085039 55 251 0.0 0.0 0.00 1.46 0.29 95 1014.3
20260505084544 56 262 0.0 0.0 0.00 1.46 0.29 95 1014.2
20260505084035 56 229 0.0 0.0 0.00 1.46 0.29 96 1014.1
20260505083539 56 229 0.0 1.0 0.00 1.46 0.29 96 1014.1
20260505083036 56 229 0.0 1.0 0.04 1.46 0.29 96 1014.1
20260505082537 56 276 0.0 0.0 0.04 1.46 0.29 96 1014.0
20260505082049 56 276 0.0 0.0 0.04 1.46 0.29 96 1014.0
20260505081548 56 276 0.0 0.0 0.04 1.46 0.29 96 1013.9
20260505081037 56 276 0.0 0.0 0.04 1.46 0.29 96 1013.9
20260505080542 56 276 0.0 0.0 0.08 1.46 0.29 96 1013.8
20260505080034 56 276 0.0 0.0 0.08 1.46 0.29 96 1013.8
20260505075538 55 276 0.0 0.0 0.08 1.46 0.29 96 1013.7
20260505075031 55 276 0.0 0.0 0.08 1.46 0.29 96 1013.8
20260505074556 55 276 0.0 0.0 0.08 1.46 0.29 96 1013.7
20260505074043 55 277 0.0 0.0 0.12 1.46 0.29 96 1013.6
20260505073546 55 276 0.0 0.0 0.12 1.46 0.29 96 1013.7
20260505073101 54 276 0.0 0.0 0.08 1.42 0.28 96 1013.7
20260505072544 54 277 0.0 0.0 0.08 1.42 0.28 96 1013.7
20260505072058 54 276 0.0 0.0 0.12 1.42 0.28 96 1013.7
20260505071532 54 276 0.0 0.0 0.12 1.42 0.28 96 1013.7
20260505071046 54 277 0.0 0.0 0.16 1.42 0.28 96 1013.6
20260505070548 54 277 0.0 0.0 0.12 1.38 0.28 96 1013.7
20260505070036 54 277 0.0 0.0 0.16 1.38 0.28 96 1013.6